Back to catalog

CZ-6A DEB

AlivePO
NORAD 61323·DEBRIS·🇨🇳 China

Launched Aug 6, 2024 from Taiyuan Satellite Launch Center

Loading…

Next Passes (next 24 hours)

TLE

FreshSource: Space-Track

Epoch: Sep 14, 2026, 10:18 UTC

1 61323U 24140UL  26257.42928686  .00004635  00000-0  88911-3 0  9991
2 61323  88.8437 244.4533 0072114 306.1760  53.2796 14.61934058107908

Track CZ-6A DEB in real time with AllMySat

Download on the App Store